#datetime,building,power
2022-04-20T00:00:00,cfa,138.52
2022-04-20T00:01:00,cfa,46.17
2022-04-20T00:03:00,cfa,139.22
2022-04-20T00:04:00,cfa,46.17
2022-04-20T00:05:00,cfa,69.14
2022-04-20T00:07:00,cfa,115.78
2022-04-20T00:08:00,cfa,46.17
2022-04-20T00:10:00,cfa,115.08
2022-04-20T00:12:00,cfa,115.78
2022-04-20T00:14:00,cfa,115.31
2022-04-20T00:16:00,cfa,139.22
2022-04-20T00:18:00,cfa,115.08
2022-04-20T00:19:00,cfa,46.17
2022-04-20T00:21:00,cfa,116.02
2022-04-20T00:23:00,cfa,115.08
2022-04-20T00:25:00,cfa,139.22
2022-04-20T00:26:00,cfa,46.17
2022-04-20T00:28:00,cfa,138.52
2022-04-20T00:30:00,cfa,115.31
2022-04-20T00:32:00,cfa,115.78
2022-04-20T00:33:00,cfa,69.61
2022-04-20T00:35:00,cfa,115.31
2022-04-20T00:37:00,cfa,115.78
2022-04-20T00:38:00,cfa,68.91
2022-04-20T00:40:00,cfa,115.78
2022-04-20T00:41:00,cfa,46.17
2022-04-20T00:43:00,cfa,138.75
2022-04-20T00:44:00,cfa,46.17
2022-04-20T00:46:00,cfa,138.52
2022-04-20T00:48:00,cfa,115.78
2022-04-20T00:49:00,cfa,46.17
2022-04-20T00:50:00,cfa,69.14
2022-04-20T00:52:00,cfa,115.78
2022-04-20T00:53:00,cfa,68.91
2022-04-20T00:55:00,cfa,115.78
2022-04-20T00:56:00,cfa,46.17
2022-04-20T00:58:00,cfa,115.78
2022-04-20T00:59:00,cfa,69.14
2022-04-20T01:01:00,cfa,115.78
2022-04-20T01:02:00,cfa,68.91
2022-04-20T01:03:00,cfa,46.88
2022-04-20T01:05:00,cfa,115.31
2022-04-20T01:06:00,cfa,69.38
2022-04-20T01:08:00,cfa,115.31
2022-04-20T01:10:00,cfa,138.52
2022-04-20T01:12:00,cfa,115.78
2022-04-20T01:14:00,cfa,115.31
2022-04-20T01:16:00,cfa,115.78
2022-04-20T01:18:00,cfa,115.78
2022-04-20T01:20:00,cfa,138.52
2022-04-20T01:22:00,cfa,115.31
2022-04-20T01:23:00,cfa,46.17
2022-04-20T01:25:00,cfa,139.22
2022-04-20T01:27:00,cfa,115.31
2022-04-20T01:29:00,cfa,115.78
2022-04-20T01:31:00,cfa,138.52
2022-04-20T01:33:00,cfa,115.78
2022-04-20T01:34:00,cfa,46.17
2022-04-20T01:36:00,cfa,138.75
2022-04-20T01:38:00,cfa,115.08
2022-04-20T01:40:00,cfa,115.78
2022-04-20T01:41:00,cfa,69.61
2022-04-20T01:43:00,cfa,115.31
2022-04-20T01:44:00,cfa,69.61
2022-04-20T01:45:00,cfa,46.17
2022-04-20T01:47:00,cfa,115.08
2022-04-20T01:48:00,cfa,69.61
2022-04-20T01:50:00,cfa,115.78
2022-04-20T01:52:00,cfa,115.31
2022-04-20T01:53:00,cfa,69.61
2022-04-20T01:55:00,cfa,115.08
2022-04-20T01:57:00,cfa,115.78
2022-04-20T01:59:00,cfa,115.31
2022-04-20T02:00:00,cfa,69.61
2022-04-20T02:02:00,cfa,115.78
2022-04-20T02:03:00,cfa,68.91
2022-04-20T02:05:00,cfa,115.78
2022-04-20T02:07:00,cfa,115.31
2022-04-20T02:08:00,cfa,69.61
2022-04-20T02:10:00,cfa,115.78
2022-04-20T02:11:00,cfa,46.17
2022-04-20T02:13:00,cfa,115.31
2022-04-20T02:15:00,cfa,115.78
2022-04-20T02:16:00,cfa,68.91
2022-04-20T02:18:00,cfa,115.78
2022-04-20T02:19:00,cfa,46.17
2022-04-20T02:21:00,cfa,115.31
2022-04-20T02:22:00,cfa,69.61
2022-04-20T02:24:00,cfa,115.78
2022-04-20T02:26:00,cfa,115.08
2022-04-20T02:27:00,cfa,69.61
2022-04-20T02:28:00,cfa,46.17
2022-04-20T02:30:00,cfa,115.31
2022-04-20T02:31:00,cfa,69.61
2022-04-20T02:32:00,cfa,46.17
2022-04-20T02:34:00,cfa,115.78
2022-04-20T02:35:00,cfa,69.14
2022-04-20T02:37:00,cfa,115.78
2022-04-20T02:38:00,cfa,46.17
2022-04-20T02:40:00,cfa,115.08
2022-04-20T02:42:00,cfa,139.22
2022-04-20T02:43:00,cfa,46.17
2022-04-20T02:44:00,cfa,69.14
2022-04-20T02:46:00,cfa,115.78
2022-04-20T02:48:00,cfa,115.08
2022-04-20T02:50:00,cfa,115.78
2022-04-20T02:51:00,cfa,46.17
2022-04-20T02:53:00,cfa,116.02
2022-04-20T02:54:00,cfa,68.91
2022-04-20T02:56:00,cfa,115.78
2022-04-20T02:58:00,cfa,115.78
2022-04-20T03:00:00,cfa,115.31
2022-04-20T03:02:00,cfa,115.78
2022-04-20T03:04:00,cfa,115.08
2022-04-20T03:06:00,cfa,115.78
2022-04-20T03:08:00,cfa,115.31
2022-04-20T03:10:00,cfa,115.78
2022-04-20T03:12:00,cfa,115.78
2022-04-20T03:14:00,cfa,115.31
2022-04-20T03:16:00,cfa,115.78
2022-04-20T03:17:00,cfa,68.91
2022-04-20T03:18:00,cfa,46.17
2022-04-20T03:20:00,cfa,115.78
2022-04-20T03:21:00,cfa,69.61
2022-04-20T03:23:00,cfa,115.31
2022-04-20T03:24:00,cfa,46.17
2022-04-20T03:26:00,cfa,138.52
2022-04-20T03:28:00,cfa,115.78
2022-04-20T03:30:00,cfa,115.31
2022-04-20T03:31:00,cfa,69.61
2022-04-20T03:33:00,cfa,115.78
2022-04-20T03:35:00,cfa,115.08
2022-04-20T03:36:00,cfa,46.17
2022-04-20T03:38:00,cfa,116.02
2022-04-20T03:39:00,cfa,68.91
2022-04-20T03:41:00,cfa,115.78
2022-04-20T03:42:00,cfa,46.17
2022-04-20T03:44:00,cfa,138.52
2022-04-20T03:45:00,cfa,69.61
2022-04-20T03:47:00,cfa,115.31
2022-04-20T03:48:00,cfa,69.61
2022-04-20T03:50:00,cfa,115.78
2022-04-20T03:52:00,cfa,115.31
2022-04-20T03:53:00,cfa,46.17
2022-04-20T03:55:00,cfa,115.78
2022-04-20T03:56:00,cfa,68.91
2022-04-20T03:58:00,cfa,115.78
2022-04-20T04:00:00,cfa,115.78
2022-04-20T04:02:00,cfa,115.31
2022-04-20T04:03:00,cfa,69.61
2022-04-20T04:05:00,cfa,115.08
2022-04-20T04:07:00,cfa,139.22
2022-04-20T04:08:00,cfa,69.14
2022-04-20T04:09:00,cfa,68.91
2022-04-20T04:11:00,cfa,115.78
2022-04-20T04:12:00,cfa,69.61
2022-04-20T04:14:00,cfa,138.52
2022-04-20T04:15:00,cfa,46.41
2022-04-20T04:17:00,cfa,138.52
2022-04-20T04:18:00,cfa,69.61
2022-04-20T04:20:00,cfa,138.52
2022-04-20T04:21:00,cfa,46.17
2022-04-20T04:23:00,cfa,138.75
2022-04-20T04:24:00,cfa,68.91
2022-04-20T04:25:00,cfa,46.17
2022-04-20T04:27:00,cfa,139.22
2022-04-20T04:29:00,cfa,115.31
2022-04-20T04:30:00,cfa,69.61
2022-04-20T04:31:00,cfa,68.91
2022-04-20T04:33:00,cfa,138.52
2022-04-20T04:35:00,cfa,115.78
2022-04-20T04:36:00,cfa,69.14
2022-04-20T04:37:00,cfa,69.61
2022-04-20T04:39:00,cfa,115.78
2022-04-20T04:40:00,cfa,68.91
2022-04-20T04:42:00,cfa,115.78
2022-04-20T04:44:00,cfa,138.75
2022-04-20T04:45:00,cfa,69.61
2022-04-20T04:47:00,cfa,115.08
2022-04-20T04:48:00,cfa,69.61
2022-04-20T04:50:00,cfa,115.31
2022-04-20T04:51:00,cfa,69.61
2022-04-20T04:53:00,cfa,138.52
2022-04-20T04:54:00,cfa,46.17
2022-04-20T04:56:00,cfa,138.52
2022-04-20T04:58:00,cfa,116.02
2022-04-20T04:59:00,cfa,68.91
2022-04-20T05:01:00,cfa,138.52
2022-04-20T05:03:00,cfa,115.78
2022-04-20T05:05:00,cfa,138.75
2022-04-20T05:06:00,cfa,46.17
2022-04-20T05:08:00,cfa,138.52
2022-04-20T05:10:00,cfa,139.22
2022-04-20T05:12:00,cfa,115.31
2022-04-20T05:13:00,cfa,69.61
2022-04-20T05:15:00,cfa,115.08
2022-04-20T05:17:00,cfa,138.75
2022-04-20T05:19:00,cfa,115.78
2022-04-20T05:21:00,cfa,138.52
2022-04-20T05:23:00,cfa,115.78
2022-04-20T05:25:00,cfa,138.52
2022-04-20T05:27:00,cfa,115.31
2022-04-20T05:29:00,cfa,139.22
2022-04-20T05:31:00,cfa,115.08
2022-04-20T05:33:00,cfa,138.75
2022-04-20T05:35:00,cfa,138.52
2022-04-20T05:37:00,cfa,115.78
2022-04-20T05:39:00,cfa,138.75
2022-04-20T05:41:00,cfa,115.78
2022-04-20T05:43:00,cfa,115.08
2022-04-20T05:45:00,cfa,138.52
2022-04-20T05:47:00,cfa,138.75
2022-04-20T05:49:00,cfa,139.22
2022-04-20T05:50:00,cfa,68.91
2022-04-20T05:52:00,cfa,138.75
2022-04-20T05:54:00,cfa,115.78
2022-04-20T05:56:00,cfa,138.52
2022-04-20T05:57:00,cfa,46.17
2022-04-20T05:59:00,cfa,138.52
2022-04-20T06:00:00,cfa,46.41
2022-04-20T06:02:00,cfa,138.52
2022-04-20T06:03:00,cfa,46.17
2022-04-20T06:05:00,cfa,161.95
2022-04-20T06:07:00,cfa,138.75
2022-04-20T06:08:00,cfa,92.34
2022-04-20T06:10:00,cfa,161.95
2022-04-20T06:11:00,cfa,92.34
2022-04-20T06:13:00,cfa,138.75
2022-04-20T06:15:00,cfa,184.69
2022-04-20T06:17:00,cfa,161.95
2022-04-20T06:19:00,cfa,138.75
2022-04-20T06:20:00,cfa,92.34
2022-04-20T06:22:00,cfa,161.95
2022-04-20T06:23:00,cfa,69.14
2022-04-20T06:25:00,cfa,161.95
2022-04-20T06:27:00,cfa,161.95
2022-04-20T06:28:00,cfa,68.91
2022-04-20T06:30:00,cfa,162.19
2022-04-20T06:31:00,cfa,92.34
2022-04-20T06:33:00,cfa,138.52
2022-04-20T06:34:00,cfa,92.34
2022-04-20T06:36:00,cfa,162.19
2022-04-20T06:37:00,cfa,92.34
2022-04-20T06:38:00,cfa,68.91
2022-04-20T06:40:00,cfa,161.95
2022-04-20T06:42:00,cfa,161.48
2022-04-20T06:43:00,cfa,69.61
2022-04-20T06:45:00,cfa,161.95
2022-04-20T06:47:00,cfa,161.48
2022-04-20T06:49:00,cfa,161.95
2022-04-20T06:51:00,cfa,161.95
2022-04-20T06:52:00,cfa,69.14
2022-04-20T06:53:00,cfa,92.34
2022-04-20T06:55:00,cfa,138.52
2022-04-20T06:57:00,cfa,161.95
2022-04-20T06:59:00,cfa,162.19
2022-04-20T07:01:00,cfa,161.25
2022-04-20T07:02:00,cfa,93.05
2022-04-20T07:03:00,cfa,68.91
2022-04-20T07:05:00,cfa,162.19
2022-04-20T07:06:00,cfa,92.34
2022-04-20T07:08:00,cfa,161.48
2022-04-20T07:09:00,cfa,69.61
2022-04-20T07:11:00,cfa,161.95
2022-04-20T07:12:00,cfa,92.34
2022-04-20T07:13:00,cfa,92.34
2022-04-20T07:15:00,cfa,161.48
2022-04-20T07:17:00,cfa,161.95
2022-04-20T07:18:00,cfa,92.34
2022-04-20T07:20:00,cfa,184.92
2022-04-20T07:22:00,cfa,184.69
2022-04-20T07:23:00,cfa,69.61
2022-04-20T07:25:00,cfa,184.92
2022-04-20T07:27:00,cfa,161.95
2022-04-20T07:28:00,cfa,68.91
2022-04-20T07:29:00,cfa,93.05
2022-04-20T07:31:00,cfa,161.48
2022-04-20T07:33:00,cfa,161.95
2022-04-20T07:35:00,cfa,161.48
2022-04-20T07:37:00,cfa,184.69
2022-04-20T07:38:00,cfa,69.61
2022-04-20T07:39:00,cfa,92.34
2022-04-20T07:41:00,cfa,161.95
2022-04-20T07:43:00,cfa,161.48
2022-04-20T07:44:00,cfa,93.05
2022-04-20T07:46:00,cfa,161.48
2022-04-20T07:47:00,cfa,69.38
2022-04-20T07:48:00,cfa,92.58
2022-04-20T07:50:00,cfa,184.69
2022-04-20T07:52:00,cfa,161.48
2022-04-20T07:53:00,cfa,69.61
2022-04-20T07:54:00,cfa,92.34
2022-04-20T07:56:00,cfa,161.95
2022-04-20T07:58:00,cfa,161.48
2022-04-20T08:00:00,cfa,161.95
2022-04-20T08:02:00,cfa,161.95
2022-04-20T08:04:00,cfa,184.92
2022-04-20T08:05:00,cfa,68.91
2022-04-20T08:07:00,cfa,185.39
2022-04-20T08:08:00,cfa,69.14
2022-04-20T08:10:00,cfa,184.69
2022-04-20T08:12:00,cfa,161.95
2022-04-20T08:13:00,cfa,92.58
2022-04-20T08:15:00,cfa,184.69
2022-04-20T08:17:00,cfa,185.39
2022-04-20T08:19:00,cfa,184.22
2022-04-20T08:20:00,cfa,93.05
2022-04-20T08:21:00,cfa,92.34
2022-04-20T08:23:00,cfa,184.69
2022-04-20T08:24:00,cfa,92.58
2022-04-20T08:25:00,cfa,92.34
2022-04-20T08:27:00,cfa,184.69
2022-04-20T08:28:00,cfa,92.58
2022-04-20T08:30:00,cfa,184.69
2022-04-20T08:31:00,cfa,93.05
2022-04-20T08:33:00,cfa,184.69
2022-04-20T08:34:00,cfa,115.31
2022-04-20T08:36:00,cfa,185.39
2022-04-20T08:38:00,cfa,184.22
2022-04-20T08:40:00,cfa,185.39
2022-04-20T08:42:00,cfa,184.69
2022-04-20T08:43:00,cfa,92.58
2022-04-20T08:44:00,cfa,92.34
2022-04-20T08:45:00,cfa,92.34
2022-04-20T08:47:00,cfa,184.92
2022-04-20T08:49:00,cfa,208.12
2022-04-20T08:51:00,cfa,184.69
2022-04-20T08:53:00,cfa,208.36
2022-04-20T08:55:00,cfa,208.12
2022-04-20T08:57:00,cfa,207.66
2022-04-20T08:59:00,cfa,184.69
2022-04-20T09:01:00,cfa,184.92
2022-04-20T09:02:00,cfa,93.05
2022-04-20T09:03:00,cfa,115.08
2022-04-20T09:05:00,cfa,185.39
2022-04-20T09:07:00,cfa,184.22
2022-04-20T09:08:00,cfa,93.05
2022-04-20T09:10:00,cfa,207.66
2022-04-20T09:12:00,cfa,184.69
2022-04-20T09:14:00,cfa,185.39
2022-04-20T09:16:00,cfa,207.66
2022-04-20T09:18:00,cfa,185.39
2022-04-20T09:20:00,cfa,207.66
2022-04-20T09:22:00,cfa,208.12
2022-04-20T09:24:00,cfa,184.92
2022-04-20T09:26:00,cfa,208.12
2022-04-20T09:28:00,cfa,184.69
2022-04-20T09:30:00,cfa,207.66
2022-04-20T09:31:00,cfa,93.05
2022-04-20T09:33:00,cfa,207.66
2022-04-20T09:35:00,cfa,208.12
2022-04-20T09:37:00,cfa,184.69
2022-04-20T09:39:00,cfa,208.36
2022-04-20T09:41:00,cfa,208.12
2022-04-20T09:43:00,cfa,184.92
2022-04-20T09:44:00,cfa,115.08
2022-04-20T09:46:00,cfa,184.92
2022-04-20T09:48:00,cfa,208.12
2022-04-20T09:49:00,cfa,92.34
2022-04-20T09:50:00,cfa,115.78
2022-04-20T09:52:00,cfa,184.92
2022-04-20T09:54:00,cfa,208.12
2022-04-20T09:55:00,cfa,92.34
2022-04-20T09:56:00,cfa,115.31
2022-04-20T09:58:00,cfa,208.12
2022-04-20T09:59:00,cfa,92.34
2022-04-20T10:01:00,cfa,208.36
2022-04-20T10:03:00,cfa,207.42
2022-04-20T10:05:00,cfa,231.09
2022-04-20T10:07:00,cfa,208.12
2022-04-20T10:09:00,cfa,208.36
2022-04-20T10:11:00,cfa,208.12
2022-04-20T10:13:00,cfa,207.66
2022-04-20T10:15:00,cfa,208.12
2022-04-20T10:17:00,cfa,231.09
2022-04-20T10:18:00,cfa,92.34
2022-04-20T10:20:00,cfa,231.56
2022-04-20T10:21:00,cfa,92.34
2022-04-20T10:23:00,cfa,207.66
2022-04-20T10:25:00,cfa,231.56
2022-04-20T10:27:00,cfa,207.66
2022-04-20T10:28:00,cfa,115.78
2022-04-20T10:30:00,cfa,207.66
2022-04-20T10:32:00,cfa,208.12
2022-04-20T10:34:00,cfa,231.09
2022-04-20T10:36:00,cfa,230.86
2022-04-20T10:38:00,cfa,208.36
2022-04-20T10:40:00,cfa,230.86
2022-04-20T10:42:00,cfa,208.36
2022-04-20T10:44:00,cfa,230.86
2022-04-20T10:46:00,cfa,208.12
2022-04-20T10:47:00,cfa,115.31
2022-04-20T10:49:00,cfa,231.56
2022-04-20T10:50:00,cfa,92.34
2022-04-20T10:52:00,cfa,254.53
2022-04-20T10:54:00,cfa,230.86
2022-04-20T10:56:00,cfa,231.09
2022-04-20T10:57:00,cfa,92.34
2022-04-20T10:58:00,cfa,115.31
2022-04-20T11:00:00,cfa,231.56
2022-04-20T11:01:00,cfa,115.08
2022-04-20T11:03:00,cfa,208.36
2022-04-20T11:05:00,cfa,230.86
2022-04-20T11:07:00,cfa,231.09
2022-04-20T11:09:00,cfa,208.12
2022-04-20T11:11:00,cfa,208.36
2022-04-20T11:12:00,cfa,115.08
2022-04-20T11:13:00,cfa,115.78
2022-04-20T11:15:00,cfa,231.09
2022-04-20T11:17:00,cfa,230.86
2022-04-20T11:19:00,cfa,324.14
2022-04-20T11:20:00,cfa,138.52
2022-04-20T11:22:00,cfa,323.44
2022-04-20T11:24:00,cfa,346.88
2022-04-20T11:26:00,cfa,346.64
2022-04-20T11:28:00,cfa,346.88
2022-04-20T11:30:00,cfa,369.61
2022-04-20T11:31:00,cfa,161.95
2022-04-20T11:33:00,cfa,369.61
2022-04-20T11:35:00,cfa,346.88
2022-04-20T11:37:00,cfa,346.17
2022-04-20T11:38:00,cfa,185.39
2022-04-20T11:40:00,cfa,346.17
2022-04-20T11:42:00,cfa,346.88
2022-04-20T11:44:00,cfa,369.61
2022-04-20T11:46:00,cfa,346.64
2022-04-20T11:47:00,cfa,184.92
2022-04-20T11:49:00,cfa,346.88
2022-04-20T11:51:00,cfa,346.64
2022-04-20T11:52:00,cfa,162.19
2022-04-20T11:54:00,cfa,369.38
2022-04-20T11:56:00,cfa,346.88
2022-04-20T11:58:00,cfa,346.88
2022-04-20T12:00:00,cfa,346.17
2022-04-20T12:02:00,cfa,346.88
2022-04-20T12:03:00,cfa,184.69
2022-04-20T12:05:00,cfa,346.88
2022-04-20T12:07:00,cfa,369.61
2022-04-20T12:09:00,cfa,346.64
2022-04-20T12:11:00,cfa,370.31
2022-04-20T12:13:00,cfa,369.61
2022-04-20T12:14:00,cfa,184.69
2022-04-20T12:15:00,cfa,184.92
2022-04-20T12:17:00,cfa,346.88
2022-04-20T12:18:00,cfa,184.69
2022-04-20T12:20:00,cfa,346.88
2022-04-20T12:21:00,cfa,184.69
2022-04-20T12:23:00,cfa,346.88
2022-04-20T12:25:00,cfa,346.88
2022-04-20T12:27:00,cfa,369.61
2022-04-20T12:28:00,cfa,161.95
2022-04-20T12:29:00,cfa,184.69
2022-04-20T12:31:00,cfa,346.88
2022-04-20T12:33:00,cfa,369.61
2022-04-20T12:35:00,cfa,346.88
2022-04-20T12:36:00,cfa,161.25
2022-04-20T12:38:00,cfa,370.31
2022-04-20T12:39:00,cfa,161.25
2022-04-20T12:41:00,cfa,346.88
2022-04-20T12:42:00,cfa,184.69
2022-04-20T12:43:00,cfa,184.92
2022-04-20T12:45:00,cfa,346.88
2022-04-20T12:46:00,cfa,161.95
2022-04-20T12:48:00,cfa,346.88
2022-04-20T12:50:00,cfa,369.38
2022-04-20T12:51:00,cfa,162.19
2022-04-20T12:53:00,cfa,346.17
2022-04-20T12:55:00,cfa,370.08
2022-04-20T12:57:00,cfa,346.88
2022-04-20T12:59:00,cfa,346.17
2022-04-20T13:00:00,cfa,185.39
2022-04-20T13:02:00,cfa,346.17
2022-04-20T13:04:00,cfa,346.88
2022-04-20T13:05:00,cfa,184.69
2022-04-20T13:07:00,cfa,346.88
2022-04-20T13:09:00,cfa,346.88
2022-04-20T13:11:00,cfa,369.61
2022-04-20T13:13:00,cfa,346.64
2022-04-20T13:15:00,cfa,346.88
2022-04-20T13:16:00,cfa,184.92
2022-04-20T13:17:00,cfa,161.95
2022-04-20T13:18:00,cfa,184.69
2022-04-20T13:19:00,cfa,161.48
2022-04-20T13:21:00,cfa,346.88
2022-04-20T13:23:00,cfa,323.91
2022-04-20T13:25:00,cfa,346.17
2022-04-20T13:26:00,cfa,185.39
2022-04-20T13:28:00,cfa,323.44
2022-04-20T13:30:00,cfa,346.88
2022-04-20T13:32:00,cfa,346.17
2022-04-20T13:33:00,cfa,185.39
2022-04-20T13:35:00,cfa,323.44
2022-04-20T13:37:00,cfa,346.17
2022-04-20T13:38:00,cfa,161.95
2022-04-20T13:40:00,cfa,346.88
2022-04-20T13:42:00,cfa,346.64
2022-04-20T13:44:00,cfa,346.88
2022-04-20T13:46:00,cfa,346.17
2022-04-20T13:48:00,cfa,346.88
2022-04-20T13:50:00,cfa,346.88
2022-04-20T13:51:00,cfa,184.69
2022-04-20T13:53:00,cfa,323.44
2022-04-20T13:54:00,cfa,185.39
2022-04-20T13:56:00,cfa,323.44
2022-04-20T13:58:00,cfa,346.64
2022-04-20T14:00:00,cfa,346.88
2022-04-20T14:01:00,cfa,161.48
2022-04-20T14:03:00,cfa,346.64
2022-04-20T14:04:00,cfa,162.19
2022-04-20T14:06:00,cfa,346.64
2022-04-20T14:08:00,cfa,392.58
2022-04-20T14:09:00,cfa,208.12
2022-04-20T14:10:00,cfa,208.12
2022-04-20T14:12:00,cfa,393.05
2022-04-20T14:13:00,cfa,207.66
2022-04-20T14:15:00,cfa,415.78
2022-04-20T14:16:00,cfa,208.12
2022-04-20T14:18:00,cfa,416.48
2022-04-20T14:20:00,cfa,415.78
2022-04-20T14:22:00,cfa,415.78
2022-04-20T14:23:00,cfa,208.12
2022-04-20T14:25:00,cfa,415.78
2022-04-20T14:26:00,cfa,208.36
2022-04-20T14:28:00,cfa,416.25
2022-04-20T14:30:00,cfa,392.58
2022-04-20T14:32:00,cfa,416.25
2022-04-20T14:34:00,cfa,415.78
2022-04-20T14:36:00,cfa,415.78
2022-04-20T14:38:00,cfa,439.22
2022-04-20T14:40:00,cfa,416.48
2022-04-20T14:42:00,cfa,415.78
2022-04-20T14:44:00,cfa,415.78
2022-04-20T14:45:00,cfa,231.56
2022-04-20T14:47:00,cfa,415.78
2022-04-20T14:48:00,cfa,207.66
2022-04-20T14:50:00,cfa,439.22
2022-04-20T14:52:00,cfa,416.48
2022-04-20T14:54:00,cfa,415.78
2022-04-20T14:55:00,cfa,208.12
2022-04-20T14:57:00,cfa,415.78
2022-04-20T14:59:00,cfa,415.78
2022-04-20T15:01:00,cfa,416.48
2022-04-20T15:03:00,cfa,415.78
2022-04-20T15:04:00,cfa,184.69
2022-04-20T15:06:00,cfa,416.48
2022-04-20T15:08:00,cfa,415.78
2022-04-20T15:10:00,cfa,415.78
2022-04-20T15:12:00,cfa,416.48
2022-04-20T15:13:00,cfa,208.12
2022-04-20T15:15:00,cfa,392.34
2022-04-20T15:17:00,cfa,416.48
2022-04-20T15:19:00,cfa,415.78
2022-04-20T15:21:00,cfa,415.78
2022-04-20T15:22:00,cfa,208.12
2022-04-20T15:24:00,cfa,416.48
2022-04-20T15:26:00,cfa,392.34
2022-04-20T15:28:00,cfa,416.48
2022-04-20T15:30:00,cfa,415.78
2022-04-20T15:31:00,cfa,207.66
2022-04-20T15:33:00,cfa,416.25
2022-04-20T15:35:00,cfa,416.02
2022-04-20T15:37:00,cfa,416.25
2022-04-20T15:39:00,cfa,393.05
2022-04-20T15:41:00,cfa,415.78
2022-04-20T15:42:00,cfa,207.66
2022-04-20T15:44:00,cfa,416.25
2022-04-20T15:46:00,cfa,393.05
2022-04-20T15:48:00,cfa,415.78
2022-04-20T15:50:00,cfa,439.22
2022-04-20T15:52:00,cfa,415.78
2022-04-20T15:54:00,cfa,416.48
2022-04-20T15:56:00,cfa,393.05
2022-04-20T15:58:00,cfa,415.78
2022-04-20T15:59:00,cfa,208.12
2022-04-20T16:00:00,cfa,207.66
2022-04-20T16:02:00,cfa,416.48
2022-04-20T16:04:00,cfa,392.34
2022-04-20T16:06:00,cfa,416.25
2022-04-20T16:07:00,cfa,208.36
2022-04-20T16:09:00,cfa,415.78
2022-04-20T16:10:00,cfa,208.12
2022-04-20T16:12:00,cfa,393.05
2022-04-20T16:13:00,cfa,184.22
2022-04-20T16:14:00,cfa,208.12
2022-04-20T16:16:00,cfa,393.05
2022-04-20T16:17:00,cfa,208.12
2022-04-20T16:19:00,cfa,393.05
2022-04-20T16:20:00,cfa,184.92
2022-04-20T16:21:00,cfa,184.69
2022-04-20T16:23:00,cfa,393.05
2022-04-20T16:24:00,cfa,208.12
2022-04-20T16:26:00,cfa,392.34
2022-04-20T16:28:00,cfa,393.05
2022-04-20T16:30:00,cfa,393.05
2022-04-20T16:32:00,cfa,393.05
2022-04-20T16:34:00,cfa,369.61
2022-04-20T16:35:00,cfa,208.12
2022-04-20T16:37:00,cfa,369.61
2022-04-20T16:39:00,cfa,393.05
2022-04-20T16:41:00,cfa,393.05
2022-04-20T16:43:00,cfa,369.61
2022-04-20T16:44:00,cfa,208.12
2022-04-20T16:46:00,cfa,393.05
2022-04-20T16:48:00,cfa,369.61
2022-04-20T16:50:00,cfa,393.05
2022-04-20T16:51:00,cfa,184.69
2022-04-20T16:53:00,cfa,369.61
2022-04-20T16:54:00,cfa,208.12
2022-04-20T16:55:00,cfa,184.92
2022-04-20T16:57:00,cfa,369.61
2022-04-20T16:58:00,cfa,185.39
2022-04-20T17:00:00,cfa,369.61
2022-04-20T17:01:00,cfa,208.12
2022-04-20T17:03:00,cfa,369.61
2022-04-20T17:05:00,cfa,369.61
2022-04-20T17:07:00,cfa,369.61
2022-04-20T17:09:00,cfa,370.08
2022-04-20T17:11:00,cfa,393.05
2022-04-20T17:13:00,cfa,369.61
2022-04-20T17:14:00,cfa,184.92
2022-04-20T17:16:00,cfa,370.08
2022-04-20T17:18:00,cfa,369.61
2022-04-20T17:20:00,cfa,369.61
2022-04-20T17:21:00,cfa,185.39
2022-04-20T17:22:00,cfa,184.22
2022-04-20T17:24:00,cfa,393.05
2022-04-20T17:26:00,cfa,393.05
2022-04-20T17:28:00,cfa,370.08
2022-04-20T17:30:00,cfa,369.61
2022-04-20T17:31:00,cfa,184.92
2022-04-20T17:33:00,cfa,369.61
2022-04-20T17:35:00,cfa,370.08
2022-04-20T17:36:00,cfa,184.92
2022-04-20T17:38:00,cfa,369.61
2022-04-20T17:40:00,cfa,370.08
2022-04-20T17:42:00,cfa,369.61
2022-04-20T17:44:00,cfa,369.61
2022-04-20T17:45:00,cfa,161.95
2022-04-20T17:47:00,cfa,346.88
2022-04-20T17:49:00,cfa,323.44
2022-04-20T17:50:00,cfa,184.69
2022-04-20T17:52:00,cfa,323.44
2022-04-20T17:53:00,cfa,185.39
2022-04-20T17:55:00,cfa,346.17
2022-04-20T17:57:00,cfa,346.88
2022-04-20T17:58:00,cfa,184.69
2022-04-20T18:00:00,cfa,346.88
2022-04-20T18:02:00,cfa,346.88
2022-04-20T18:04:00,cfa,346.17
2022-04-20T18:05:00,cfa,161.95
2022-04-20T18:07:00,cfa,346.88
2022-04-20T18:09:00,cfa,346.64
2022-04-20T18:11:00,cfa,323.44
2022-04-20T18:13:00,cfa,346.88
2022-04-20T18:15:00,cfa,300.70
2022-04-20T18:16:00,cfa,161.25
2022-04-20T18:18:00,cfa,323.44
2022-04-20T18:20:00,cfa,323.91
2022-04-20T18:22:00,cfa,346.88
2022-04-20T18:24:00,cfa,323.44
2022-04-20T18:25:00,cfa,161.95
2022-04-20T18:27:00,cfa,346.17
2022-04-20T18:28:00,cfa,161.95
2022-04-20T18:30:00,cfa,323.44
2022-04-20T18:32:00,cfa,324.14
2022-04-20T18:34:00,cfa,323.44
2022-04-20T18:36:00,cfa,323.20
2022-04-20T18:38:00,cfa,346.88
2022-04-20T18:39:00,cfa,161.95
2022-04-20T18:41:00,cfa,323.44
2022-04-20T18:42:00,cfa,161.95
2022-04-20T18:44:00,cfa,323.44
2022-04-20T18:46:00,cfa,323.44
2022-04-20T18:47:00,cfa,161.95
2022-04-20T18:49:00,cfa,323.44
2022-04-20T18:51:00,cfa,323.44
2022-04-20T18:53:00,cfa,323.91
2022-04-20T18:54:00,cfa,161.48
2022-04-20T18:55:00,cfa,161.95
2022-04-20T18:57:00,cfa,300.70
2022-04-20T18:59:00,cfa,323.20
2022-04-20T19:01:00,cfa,300.70
2022-04-20T19:02:00,cfa,161.48
2022-04-20T19:03:00,cfa,138.52
2022-04-20T19:05:00,cfa,323.91
2022-04-20T19:07:00,cfa,300.00
2022-04-20T19:08:00,cfa,138.75
2022-04-20T19:10:00,cfa,300.47
2022-04-20T19:12:00,cfa,300.70
2022-04-20T19:14:00,cfa,300.47
2022-04-20T19:15:00,cfa,138.75
2022-04-20T19:17:00,cfa,300.47
2022-04-20T19:19:00,cfa,323.44
2022-04-20T19:21:00,cfa,300.70
2022-04-20T19:23:00,cfa,323.44
2022-04-20T19:25:00,cfa,300.47
2022-04-20T19:27:00,cfa,346.88
2022-04-20T19:29:00,cfa,346.17
2022-04-20T19:31:00,cfa,370.31
2022-04-20T19:33:00,cfa,369.38
2022-04-20T19:34:00,cfa,162.19
2022-04-20T19:36:00,cfa,369.61
2022-04-20T19:37:00,cfa,184.69
2022-04-20T19:39:00,cfa,346.88
2022-04-20T19:41:00,cfa,369.61
2022-04-20T19:43:00,cfa,370.08
2022-04-20T19:45:00,cfa,300.00
2022-04-20T19:47:00,cfa,300.70
2022-04-20T19:49:00,cfa,300.47
2022-04-20T19:51:00,cfa,277.27
2022-04-20T19:52:00,cfa,161.95
2022-04-20T19:54:00,cfa,300.70
2022-04-20T19:56:00,cfa,300.00
2022-04-20T19:58:00,cfa,277.73
2022-04-20T19:59:00,cfa,161.48
2022-04-20T20:01:00,cfa,300.47
2022-04-20T20:02:00,cfa,138.75
2022-04-20T20:04:00,cfa,300.47
2022-04-20T20:06:00,cfa,300.70
2022-04-20T20:08:00,cfa,277.27
2022-04-20T20:10:00,cfa,300.47
2022-04-20T20:11:00,cfa,161.48
2022-04-20T20:13:00,cfa,300.47
2022-04-20T20:15:00,cfa,300.70
2022-04-20T20:17:00,cfa,300.00
2022-04-20T20:18:00,cfa,139.22
2022-04-20T20:20:00,cfa,300.00
2022-04-20T20:22:00,cfa,300.47
2022-04-20T20:23:00,cfa,138.75
2022-04-20T20:25:00,cfa,300.47
2022-04-20T20:27:00,cfa,300.70
2022-04-20T20:29:00,cfa,300.00
2022-04-20T20:30:00,cfa,139.22
2022-04-20T20:31:00,cfa,161.25
2022-04-20T20:33:00,cfa,277.27
2022-04-20T20:34:00,cfa,161.95
2022-04-20T20:36:00,cfa,300.70
2022-04-20T20:37:00,cfa,138.52
2022-04-20T20:39:00,cfa,277.27
2022-04-20T20:40:00,cfa,161.95
2022-04-20T20:42:00,cfa,300.70
2022-04-20T20:43:00,cfa,138.52
2022-04-20T20:45:00,cfa,300.00
2022-04-20T20:46:00,cfa,139.22
2022-04-20T20:48:00,cfa,277.27
2022-04-20T20:50:00,cfa,300.47
2022-04-20T20:52:00,cfa,277.27
2022-04-20T20:54:00,cfa,300.70
2022-04-20T20:56:00,cfa,300.47
2022-04-20T20:57:00,cfa,138.05
2022-04-20T20:59:00,cfa,300.47
2022-04-20T21:01:00,cfa,277.97
2022-04-20T21:03:00,cfa,300.00
2022-04-20T21:04:00,cfa,138.52
2022-04-20T21:05:00,cfa,139.22
2022-04-20T21:07:00,cfa,300.00
2022-04-20T21:09:00,cfa,277.27
2022-04-20T21:10:00,cfa,161.95
2022-04-20T21:11:00,cfa,138.52
2022-04-20T21:13:00,cfa,300.70
2022-04-20T21:15:00,cfa,300.47
2022-04-20T21:17:00,cfa,300.70
2022-04-20T21:18:00,cfa,138.52
2022-04-20T21:20:00,cfa,300.00
2022-04-20T21:22:00,cfa,300.70
2022-04-20T21:23:00,cfa,138.52
2022-04-20T21:25:00,cfa,300.70
2022-04-20T21:26:00,cfa,138.52
2022-04-20T21:28:00,cfa,254.53
2022-04-20T21:30:00,cfa,230.86
2022-04-20T21:32:00,cfa,184.92
2022-04-20T21:34:00,cfa,208.12
2022-04-20T21:36:00,cfa,184.92
2022-04-20T21:38:00,cfa,184.69
2022-04-20T21:40:00,cfa,185.39
2022-04-20T21:42:00,cfa,207.66
2022-04-20T21:43:00,cfa,92.34